This is the latest recevied weather packets stored in our database for station/object KD9NSC. If no packets are shown the sender has not sent any weather packets the latest 10 day(s).
| Time | Temp. | Humidity | Pressure | Rain* | Wind** | Luminosity | Snow |
|---|---|---|---|---|---|---|---|
| 1777337706 | 16.11° C | 95% | 1006.9 hPa | 4.83 mm | - | 0 W/m² | - |
| 1777337404 | 16.11° C | 95% | 1006.4 hPa | 6.1 mm | - | 0 W/m² | - |
| 1777337100 | 16.11° C | 94% | 1006.6 hPa | 6.1 mm | - | 0 W/m² | - |
| 1777336798 | 16.11° C | 94% | 1006.3 hPa | 3.05 mm | - | 0 W/m² | - |
| 1777336496 | 16.11° C | 93% | 1006.3 hPa | 6.6 mm | - | 0 W/m² | - |
| 1777336194 | 16.67° C | 92% | 1006.7 hPa | 4.83 mm | - | 0 W/m² | - |
| 1777335891 | 17.22° C | 90% | 1007.2 hPa | 0 mm | - | 0 W/m² | - |
| 1777335588 | 17.22° C | 87% | 1006.7 hPa | 0 mm | - | 0 W/m² | - |
| 1777335285 | 17.78° C | 85% | 1006.5 hPa | 0 mm | - | 0 W/m² | - |
| 1777334982 | 17.78° C | 83% | 1005.7 hPa | 0 mm | - | 0 W/m² | - |
| 1777334674 | 17.78° C | 83% | 1005.3 hPa | 0 mm | - | 0 W/m² | - |
| 1777334372 | 17.78° C | 83% | 1004.7 hPa | 0 mm | - | 1 W/m² | - |
| 1777334068 | 17.78° C | 82% | 1004.6 hPa | 0 mm | - | 2 W/m² | - |
| 1777333763 | 17.78° C | 83% | 1004.7 hPa | 0 mm | - | 3 W/m² | - |
| 1777333459 | 17.78° C | 83% | 1004.4 hPa | 0 mm | - | 6 W/m² | - |
| 1777333157 | 17.78° C | 83% | 1003.9 hPa | 0 mm | - | 9 W/m² | - |
| 1777332855 | 17.78° C | 83% | 1004 hPa | 0 mm | - | 11 W/m² | - |
| 1777332552 | 17.78° C | 84% | 1004.5 hPa | 0 mm | - | 12 W/m² | - |
| 1777332249 | 17.78° C | 84% | 1004.2 hPa | 0 mm | - | 14 W/m² | - |
| 1777331945 | 17.78° C | 85% | 1004 hPa | 0 mm | - | 15 W/m² | - |
| 1777331643 | 17.78° C | 84% | 1004.6 hPa | 0 mm | - | 15 W/m² | - |
| 1777331340 | 17.78° C | 85% | 1004.6 hPa | 0 mm | - | 17 W/m² | - |
| 1777331037 | 17.78° C | 84% | 1005 hPa | 0 mm | - | 22 W/m² | - |
| 1777330734 | 17.78° C | 85% | 1005 hPa | 0 mm | - | 26 W/m² | - |
| 1777330431 | 17.78° C | 85% | 1005.2 hPa | 0 mm | - | 23 W/m² | - |
* Rain latest hour (hover to see other rain measurements)
** Current wind speed in m/s (hover to see current wind gust speed)